Change the Weather History Date:

Saturday, February 2, 2013

  Actual Average Record
Temperature  
Mean Temperature 10 °F -  
Max Temperature 15 °F 25 °F 37 °F (2005)
Min Temperature 4 °F 14 °F -24 °F (1976)
Degree Days  
Heating Degree Days 56    
Moisture  
Dew Point 2 °F    
Average Humidity 73    
Maximum Humidity 84    
Minimum Humidity 56    
Precipitation  
Precipitation 0.00 in - - ()
Sea Level Pressure  
Sea Level Pressure 29.99 in    
Wind  
Wind Speed 9 mph (NW)    
Max Wind Speed 15 mph    
Max Gust Speed 21 mph    
Visibility 10 miles    
Events Snow    
Averages and records for this station are not official NWS values.
T = Trace of Precipitation, MM = Missing Value Source: NWS Daily Summary

Daily Weather History Graph

Daily Weather History Graph

Search for Another Location

Airport or City:

Trip Planner

Search our weather history database for the weather conditions in past years. The results will help you decide how hot, cold, wet, or windy it might be!

Date:

Astronomy

Feb. 02, 2013 Rise Set
Actual Time 7:58 AM EST 5:46 PM EST
Civil Twilight 7:27 AM EST 6:17 PM EST
Nautical Twilight 6:51 AM EST 6:53 PM EST
Astronomical Twilight 6:16 AM EST 7:28 PM EST
Moon 12:14 AM EST (2/2) 10:44 AM EST (2/2)
Length of Visible Light 10h 50m
Length of Day
9h 47m
Waning Gibbous, 60% of the Moon is Illuminated
Feb 2
Waning Gibbous
Feb 3
Last Quarter
Feb 10
New
Feb 17
First Quarter
Feb 25
Full

Hourly Weather History & Observations

Time (EST) Temp. Windchill Dew Point Humidity Pressure Visibility Wind Dir Wind Speed Gust Speed Precip Events Conditions
12:14 AM 9.5 °F -4.4 °F 3.2 °F 76% 30.01 in 10.0 mi WNW 10.4 mph - N/A   Overcast
12:34 AM 9.0 °F -2.2 °F 3.2 °F 77% 30.01 in 10.0 mi WNW 6.9 mph - N/A   Overcast
12:54 AM 8.6 °F -3.7 °F 2.5 °F 76% 30.00 in 10.0 mi WNW 8.1 mph - N/A   Overcast
1:14 AM 8.6 °F -5.5 °F 0.9 °F 71% 30.00 in 10.0 mi West 10.4 mph - N/A   Overcast
1:34 AM 8.6 °F -7.0 °F -0.2 °F 67% 30.00 in 10.0 mi West 12.7 mph - N/A   Overcast
1:54 AM 8.4 °F -5.7 °F -0.4 °F 67% 29.99 in 10.0 mi West 10.4 mph 16.1 mph N/A   Overcast
2:14 AM 7.5 °F -6.9 °F -0.4 °F 70% 29.99 in 10.0 mi West 10.4 mph - N/A   Overcast
2:34 AM 7.2 °F -8.1 °F -1.1 °F 69% 29.99 in 10.0 mi West 11.5 mph 17.3 mph N/A   Overcast
2:54 AM 7.0 °F -8.3 °F -1.3 °F 69% 29.99 in 10.0 mi West 11.5 mph 19.6 mph N/A   Overcast
3:14 AM 7.2 °F -7.3 °F -0.8 °F 70% 29.99 in 10.0 mi West 10.4 mph 16.1 mph N/A   Overcast
3:34 AM 7.2 °F -9.6 °F -0.2 °F 72% 29.98 in 10.0 mi West 13.8 mph 18.4 mph N/A   Overcast
3:55 AM 7.5 °F -8.4 °F -0.4 °F 70% 29.98 in 10.0 mi West 12.7 mph - N/A   Overcast
4:14 AM 7.7 °F -8.2 °F -0.4 °F 70% 29.98 in 10.0 mi West 12.7 mph - N/A   Overcast
4:34 AM 7.7 °F -8.9 °F -0.4 °F 70% 29.97 in 10.0 mi West 13.8 mph - N/A   Overcast
4:54 AM 8.1 °F -9.0 °F -0.6 °F 68% 29.98 in 10.0 mi West 15.0 mph 19.6 mph N/A   Overcast
5:14 AM 8.2 °F -8.8 °F -0.2 °F 68% 29.97 in 10.0 mi West 15.0 mph 19.6 mph N/A   Overcast
5:35 AM 8.4 °F -8.6 °F -0.4 °F 67% 29.97 in 10.0 mi West 15.0 mph 20.7 mph N/A   Overcast
5:54 AM 8.2 °F -6.8 °F 0.1 °F 70% 29.97 in 10.0 mi West 11.5 mph - N/A   Mostly Cloudy
6:14 AM 7.7 °F -5.8 °F 1.2 °F 75% 29.97 in 10.0 mi West 9.2 mph 17.3 mph N/A   Scattered Clouds
6:35 AM 8.2 °F -6.8 °F 0.7 °F 71% 29.97 in 10.0 mi West 11.5 mph 20.7 mph N/A   Overcast
6:54 AM 8.2 °F -6.8 °F 1.2 °F 73% 29.98 in 10.0 mi West 11.5 mph 18.4 mph N/A   Overcast
7:14 AM 7.5 °F -8.4 °F 2.5 °F 80% 29.99 in 3.0 mi West 12.7 mph 18.4 mph N/A   Haze
7:35 AM 8.1 °F -7.0 °F 3.2 °F 81% 29.99 in 4.0 mi West 11.5 mph 19.6 mph N/A Snow Light Snow
7:54 AM 7.3 °F -5.2 °F 2.8 °F 82% 29.99 in 10.0 mi WNW 8.1 mph - N/A   Mostly Cloudy
8:14 AM 7.2 °F -4.3 °F 3.0 °F 83% 29.99 in 10.0 mi WNW 6.9 mph - N/A   Scattered Clouds
8:35 AM 7.5 °F -5.0 °F 3.2 °F 82% 30.00 in 10.0 mi WNW 8.1 mph - N/A   Clear
8:54 AM 7.5 °F -2.6 °F 3.4 °F 83% 30.00 in 3.0 mi WNW 5.8 mph - N/A Snow Light Snow
9:14 AM 8.1 °F -2.0 °F 3.2 °F 81% 30.00 in 10.0 mi NNW 5.8 mph - N/A   Scattered Clouds
9:34 AM 8.6 °F 0.1 °F 3.7 °F 81% 30.00 in 5.0 mi North 4.6 mph - N/A Snow Light Snow
9:54 AM 9.7 °F 3.2 °F 4.5 °F 79% 30.00 in 7.0 mi North 3.5 mph - N/A Snow Light Snow
10:14 AM 10.6 °F 1.0 °F 3.2 °F 72% 30.00 in 10.0 mi NNE 5.8 mph - N/A   Clear
10:34 AM 10.8 °F 4.5 °F 3.2 °F 72% 30.01 in 10.0 mi North 3.5 mph - N/A   Clear
10:54 AM 11.3 °F 0.7 °F 3.4 °F 70% 30.01 in 10.0 mi North 6.9 mph - N/A   Clear
11:14 AM 11.5 °F 3.5 °F 3.0 °F 69% 30.01 in 10.0 mi North 4.6 mph - N/A   Clear
11:34 AM 12.7 °F 2.4 °F 4.1 °F 68% 30.01 in 10.0 mi North 6.9 mph - N/A   Clear
11:54 AM 12.9 °F 5.2 °F 4.5 °F 69% 30.01 in 10.0 mi NNW 4.6 mph - N/A   Clear
12:14 PM 12.9 °F 2.6 °F 3.7 °F 67% 30.00 in 10.0 mi WNW 6.9 mph - N/A   Clear
12:34 PM 14.0 °F 5.1 °F 3.2 °F 62% 30.00 in 10.0 mi NW 5.8 mph - N/A   Scattered Clouds
12:54 PM 12.7 °F 5.0 °F 3.6 °F 67% 30.00 in 10.0 mi NNW 4.6 mph - N/A   Mostly Cloudy
1:14 PM 13.6 °F 3.5 °F 2.7 °F 62% 29.99 in 10.0 mi West 6.9 mph - N/A   Overcast
1:34 PM 13.3 °F 3.0 °F 3.0 °F 64% 29.99 in 10.0 mi WNW 6.9 mph - N/A   Overcast
1:54 PM 15.4 °F 2.3 °F 2.3 °F 56% 29.98 in 10.0 mi NW 11.5 mph 17.3 mph N/A   Overcast
2:15 PM 13.8 °F 2.7 °F 3.2 °F 63% 29.98 in 10.0 mi NNW 8.1 mph - N/A   Overcast
2:34 PM 13.1 °F 0.1 °F 1.2 °F 59% 29.98 in 10.0 mi NNW 10.4 mph - N/A   Overcast
2:54 PM 14.4 °F 5.5 °F 2.7 °F 60% 29.98 in 10.0 mi WNW 5.8 mph - N/A   Overcast
3:14 PM 14.4 °F 4.3 °F 4.3 °F 64% 29.98 in 10.0 mi NNW 6.9 mph - N/A   Overcast
3:34 PM 14.0 °F 5.1 °F 2.3 °F 60% 29.98 in 10.0 mi NW 5.8 mph - N/A   Mostly Cloudy
3:54 PM 15.3 °F 4.4 °F 6.4 °F 68% 29.99 in 5.0 mi NNW 8.1 mph - N/A   Haze
4:14 PM 14.5 °F 4.6 °F 5.5 °F 68% 29.98 in 10.0 mi NNW 6.9 mph - N/A   Mostly Cloudy
4:34 PM 13.5 °F 3.3 °F 5.7 °F 71% 29.99 in 4.0 mi North 6.9 mph - N/A   Haze
4:54 PM 12.2 °F 2.9 °F 4.3 °F 71% 29.99 in 10.0 mi NNW 5.8 mph - N/A   Mostly Cloudy
5:14 PM 11.8 °F 1.3 °F 2.1 °F 65% 30.00 in 10.0 mi NNW 6.9 mph - N/A   Scattered Clouds
5:34 PM 11.3 °F 1.9 °F 3.6 °F 71% 30.00 in 10.0 mi North 5.8 mph - N/A   Scattered Clouds
5:55 PM 10.8 °F 4.5 °F 3.9 °F 74% 30.00 in 10.0 mi North 3.5 mph - N/A   Scattered Clouds
6:14 PM 10.8 °F 4.5 °F 4.1 °F 75% 30.00 in 10.0 mi North 3.5 mph - N/A   Mostly Cloudy
6:34 PM 10.6 °F 2.5 °F 3.6 °F 73% 30.00 in 10.0 mi NNW 4.6 mph - N/A   Scattered Clouds
6:54 PM 9.3 °F 2.8 °F 2.8 °F 75% 30.00 in 10.0 mi North 3.5 mph - N/A   Scattered Clouds
7:14 PM 6.8 °F - 2.1 °F 81% 30.01 in 10.0 mi Calm Calm - N/A   Clear
7:34 PM 5.2 °F -1.9 °F 0.9 °F 82% 30.01 in 10.0 mi NNW 3.5 mph - N/A   Scattered Clouds
7:54 PM 5.2 °F -1.9 °F 0.9 °F 82% 30.01 in 10.0 mi North 3.5 mph - N/A   Mostly Cloudy
8:14 PM 5.5 °F - 1.4 °F 83% 30.00 in 10.0 mi Calm Calm - N/A   Overcast
8:34 PM 4.6 °F - 0.5 °F 83% 30.00 in 10.0 mi Calm Calm - N/A   Overcast
8:54 PM 5.5 °F - 1.8 °F 84% 30.00 in 10.0 mi Calm Calm - N/A   Overcast
9:14 PM 6.1 °F - 2.1 °F 84% 29.99 in 10.0 mi Calm Calm - N/A   Overcast
9:34 PM 6.8 °F -0.1 °F 2.8 °F 84% 29.99 in 10.0 mi WSW 3.5 mph - N/A   Overcast
9:54 PM 8.2 °F - 3.9 °F 83% 29.99 in 10.0 mi Calm Calm - N/A   Overcast
10:14 PM 10.2 °F 3.8 °F 4.8 °F 79% 29.98 in 10.0 mi WSW 3.5 mph - N/A   Overcast
10:34 PM 11.3 °F 1.9 °F 5.5 °F 78% 29.98 in 10.0 mi West 5.8 mph - N/A   Overcast
10:54 PM 9.9 °F 3.4 °F 4.8 °F 80% 29.97 in 10.0 mi WSW 3.5 mph - N/A   Scattered Clouds
11:14 PM 7.7 °F -2.4 °F 3.7 °F 84% 29.97 in 10.0 mi SW 5.8 mph - N/A   Scattered Clouds
11:35 PM 6.8 °F -2.0 °F 3.0 °F 84% 29.96 in 10.0 mi WSW 4.6 mph - N/A   Scattered Clouds